Regional Weather Roundup
Issued by NWS Sterling, VA

Home | Current Version | Previous Version | Graphics & Text | Print | Product List | Glossary On
Versions: 1 2 3 4 5 6 7 8 9 10 11 12 13 14 15 16 17 18 19 20 21 22 23 24 25 26 27 28 29 30 31 32 33 34 35 36 37 38 39 40 41 42 43 44 45 46 47 48 49 50
000
ASUS41 KLWX 231110
RWRLWX

REGIONAL WEATHER ROUNDUP
NATIONAL WEATHER SERVICE BALTIMORE MD/WASHINGTON DC
700 AM EDT WED JUL 23 2014

Note: "FAIR" indicates few or no clouds below 12,000 feet
with no significant weather and/or obstructions to visibility.
 TC=TEMPERATURE CELSIUS

 * =Non NWS site. Station does not report precipitation (e.g. rain,
    snow, etc.), thunder, or fog.

DCZ001-MDZ009-015-VAZ040>042-051-053>054-231200-
WASHINGTON METRO
  /KDAA//-FT BELVOIR

CITY           SKY/WX    TMP DP  RH WIND       PRES   REMARKS
WASHINGTON NAT MOCLDY    76  69  79 SW3       30.01R
DULLES         PTCLDY    72  69  90 S6        30.01R
ANDREWS AFB    CLEAR     73  71  93 SW6       30.01S
QUANTICO       MOCLDY    74  69  85 SW3       30.01S
COLLEGE PARK*  CLEAR     73  72  94 CALM      30.00S
LEESBURG*      CLEAR     72  72 100 CALM      30.03R
GAITHERSBURG*  CLEAR     72  68  88 CALM      30.05S

$$

MDZ006>007-011-014-231200-
BALTIMORE METRO

CITY           SKY/WX    TMP DP  RH WIND       PRES   REMARKS
BWI AIRPORT    MOSUNNY   72  69  90 SW3       30.00R
MD SCIENCE CTR   N/A     75  69  81 MISG      30.00R
MARTIN STATE   SUNNY     75  73  94 CALM      30.02R
ANNAPOLIS      SUNNY     74  70  87 CALM      30.00R
FORT MEADE*    CLEAR     66  64  94 CALM      30.03R

$$

MDZ012-015-019>023-231200-
MARYLAND EASTERN SHORE

CITY           SKY/WX    TMP DP  RH WIND       PRES   REMARKS
OCEAN CITY     SUNNY     71  69  93 CALM      30.02S FOG
SALISBURY      NOT AVBL
BAY BRIDGE AP*   N/A     75  72  88 SW6       30.01R
CAMBRIDGE*     CLOUDY    72  68  88 CALM      30.01R
EASTON*        MOSUNNY   75  75 100 S3        30.04S

$$

MDZ017>025-231200-
SOUTHERN MARYLAND

CITY           SKY/WX    TMP DP  RH WIND       PRES   REMARKS
PATUXENT RIVER PTCLDY    73  71  93 SW6       30.01S
ST INIGOES     NOT AVBL
LEONARDTOWN*   CLEAR     72  70  94 SW3       30.03R

$$

MDZ003>005-231200-
NORTH CENTRAL MARYLAND

CITY           SKY/WX    TMP DP  RH WIND       PRES   REMARKS
FREDERICK*     CLEAR     72  72 100 CALM      30.04R
HAGERSTOWN APT PTCLDY    72  69  90 CALM      30.02R
WESTMINSTER*   CLEAR     72  70  94 SW3       30.03R

$$

MDZ501>502-231200-
WESTERN MARYLAND

CITY           SKY/WX    TMP DP  RH WIND       PRES   REMARKS
OAKLAND*       CLEAR     68 N/A N/A SW10G16   30.14S
CUMBERLAND*    CLOUDY    72  70  94 CALM      30.07S VSB 1

$$

VAZ025>031-231200-
SHENANDOAH VALLEY

CITY           SKY/WX    TMP DP  RH WIND       PRES   REMARKS
WINCHESTER*    CLEAR     73  68  83 SW5       30.03R
STAUNTON*      CLEAR     69  66  89 CALM      30.09R

$$

WVZ021-048>050-054>055-231200-
EASTERN WEST VIRGINIA PANHANDLE

CITY           SKY/WX    TMP DP  RH WIND       PRES   REMARKS
MARTINSBURG    CLEAR     70  66  87 CALM      30.02R FOG
PETERSBURG*    CLOUDY    68  64  88 CALM      30.06R FOG

$$

VAZ036>039-050-231200-
CENTRAL FOOTHILLS

CITY           SKY/WX    TMP DP  RH WIND       PRES   REMARKS
CHARLOTTESVILL CLEAR     70  68  93 CALM      30.03R
ORANGE*        MOCLDY    70  68  94 CALM      30.04R

$$

VAZ055>057-231200-
NORTH AND CENTRAL PIEDMONT

CITY           SKY/WX    TMP DP  RH WIND       PRES   REMARKS
FREDERICKSBRG* CLEAR     73  72  98 CALM      30.00S
STAFFORD*      PTCLDY    70  70 100 CALM      30.05R

$$

NCZ024-NYZ072-PAZ021-071-VAZ022-071-231200-
OTHER REGIONAL OBSERVATIONS

CITY           SKY/WX    TMP DP  RH WIND       PRES   REMARKS
NEW YORK CITY  MOSUNNY   73  63  70 VRB3      30.01R
PHILADELPHIA   MOSUNNY   73  66  78 S7        30.00S
PITTSBURGH     CLOUDY    73  70  90 W6        30.02R
ROANOKE        PTCLDY    69  66  90 NW3       30.11R
RICHMOND       FOG       71  70  96 S5        30.03R VSB 3/4
RALEIGH        FOG       72  71  97 CALM      30.07R VSB 1/2

$$

ANZ530>537-231200-
MARINE OBSERVATIONS

STATION/POSITION TIME  TEMP    WIND        PRES
                       AIR SEA DIR/SP/G
                 (UTC) (F)     (DEG/KT/KT) (MB)
THOMAS PT LIGHT  1100   75 79  220/ 11/ 12 1016.5R
BALT KEY BRIDGE  1100   73     220/  5/  7 1015.4S
COVE POINT       1100   74     210/  6/  7 1016.0S
LEWISETTA        1100   74 81  230/  7/  9 1016.1R
SOLOMONS ISLAND  1100      81                N/A
PINEY POINT      1100          220/  3/  3   N/A

$$



USA.gov is the U.S. government's official web portal to all federal, state and local government web resources and services.